Weather History for KCOE - April, 2014

Change the Weather History Date:

Wednesday, April 2, 2014

  Actual Average (KSFF) Record (KSFF)
Temperature  
Mean Temperature 40 °F 45 °F  
Max Temperature 55 °F 55 °F - ()
Min Temperature 26 °F 35 °F - ()
Degree Days  
Heating Degree Days 24 20  
Month to date heating degree days 40  
Since 1 July heating degree days 5361  
Cooling Degree Days 0 0  
Month to date cooling degree days 0  
Year to date cooling degree days 0  
Moisture  
Dew Point 25 °F    
Average Humidity 57    
Maximum Humidity 93    
Minimum Humidity 12    
Precipitation  
Precipitation 0.00 in 0.06 in - ()
Month to date precipitation 0.11  
Year to date precipitation 5.01  
Sea Level Pressure  
Sea Level Pressure 29.83 in    
Wind  
Wind Speed 5 mph (SSW)    
Max Wind Speed 20 mph    
Max Gust Speed 22 mph    
Visibility 10 miles    
Events      
T = Trace of Precipitation, MM = Missing Value Source: NWS Daily Summary

Daily Weather History Graph

Daily Weather History Graph

Search for Another Location

Airport or City:

Trip Planner

Search our weather history database for the weather conditions in past years. The results will help you decide how hot, cold, wet, or windy it might be!

Date:

Astronomy

Apr. 02, 2014 Rise Set
Actual Time 6:23 AM PDT 7:18 PM PDT
Civil Twilight 5:52 AM PDT 7:50 PM PDT
Nautical Twilight 5:14 AM PDT 8:27 PM PDT
Astronomical Twilight 4:35 AM PDT 9:07 PM PDT
Moon 7:59 AM PDT (4/2) 11:00 PM PDT (4/2)
Length of Visible Light 13h 58m
Length of Day
12h 55m
Waxing Crescent, 11% of the Moon is Illuminated
Apr 2
Waxing Crescent
Apr 7
First Quarter
Apr 15
Full
Apr 22
Last Quarter
Apr 28
New

Hourly Weather History & Observations

Time (PDT) Temp. Windchill Dew Point Humidity Pressure Visibility Wind Dir Wind Speed Gust Speed Precip Events Conditions
12:15 AM 32.0 °F - 24.8 °F 75% 29.74 in 10.0 mi Calm Calm - N/A   Clear
12:35 AM 30.2 °F - 24.8 °F 80% 29.74 in 10.0 mi Calm Calm - N/A   Clear
12:55 AM 30.2 °F 26.7 °F 23.0 °F 75% 29.74 in 10.0 mi ENE 3.5 mph - N/A   Clear
1:15 AM 28.4 °F 24.6 °F 23.0 °F 80% 29.74 in 10.0 mi East 3.5 mph - N/A   Clear
1:35 AM 30.2 °F 24.3 °F 24.8 °F 80% 29.75 in 10.0 mi NW 5.8 mph - N/A   Clear
1:55 AM 28.4 °F 22.2 °F 21.2 °F 74% 29.75 in 10.0 mi NE 5.8 mph - N/A   Clear
2:15 AM 28.4 °F 23.3 °F 21.2 °F 74% 29.75 in 10.0 mi ESE 4.6 mph - N/A   Clear
2:35 AM 28.4 °F 24.6 °F 26.6 °F 93% 29.75 in 10.0 mi East 3.5 mph - N/A   Clear
2:55 AM 30.2 °F - 24.8 °F 80% 29.75 in 10.0 mi Calm Calm - N/A   Clear
3:15 AM 26.6 °F 22.6 °F 19.4 °F 74% 29.76 in 10.0 mi East 3.5 mph - N/A   Clear
3:35 AM 26.6 °F 21.2 °F 24.8 °F 93% 29.76 in 10.0 mi ENE 4.6 mph - N/A   Clear
3:55 AM 26.6 °F 21.2 °F 21.2 °F 80% 29.76 in 10.0 mi ENE 4.6 mph - N/A   Clear
4:15 AM 28.4 °F 23.3 °F 23.0 °F 80% 29.76 in 10.0 mi ENE 4.6 mph - N/A   Partly Cloudy
5:55 AM 28.4 °F 23.3 °F 24.8 °F 86% 29.78 in 10.0 mi ENE 4.6 mph - N/A   Overcast
6:15 AM 28.4 °F 24.6 °F 23.0 °F 80% 29.79 in 10.0 mi ENE 3.5 mph - N/A   Mostly Cloudy
6:35 AM 28.4 °F 22.2 °F 23.0 °F 80% 29.80 in 10.0 mi ENE 5.8 mph - N/A   Partly Cloudy
6:55 AM 26.6 °F - 23.0 °F 86% 29.80 in 10.0 mi Calm Calm - N/A   Clear
7:15 AM 28.4 °F 24.6 °F 24.8 °F 86% 29.81 in 10.0 mi NE 3.5 mph - N/A   Clear
7:35 AM 28.4 °F - 24.8 °F 86% 29.81 in 10.0 mi Calm Calm - N/A   Clear
7:55 AM 33.8 °F 30.8 °F 30.2 °F 87% 29.81 in 10.0 mi East 3.5 mph - N/A   Mostly Cloudy
8:15 AM 35.6 °F 31.7 °F 28.4 °F 75% 29.82 in 10.0 mi East 4.6 mph - N/A   Mostly Cloudy
8:35 AM 35.6 °F 32.8 °F 30.2 °F 81% 29.82 in 10.0 mi SSE 3.5 mph - N/A   Scattered Clouds
8:55 AM 39.2 °F 35.0 °F 33.8 °F 81% 29.83 in 10.0 mi SW 5.8 mph - N/A   Partly Cloudy
9:15 AM 39.2 °F 35.0 °F 30.2 °F 70% 29.83 in 10.0 mi SW 5.8 mph - N/A   Partly Cloudy
9:35 AM 39.2 °F 34.2 °F 28.4 °F 65% 29.84 in 10.0 mi SW 6.9 mph - N/A   Partly Cloudy
9:55 AM 41.0 °F 39.0 °F 26.6 °F 57% 29.85 in 10.0 mi SSW 3.5 mph - N/A   Clear
10:15 AM 42.8 °F 41.1 °F 30.2 °F 61% 29.85 in 10.0 mi SSW 3.5 mph - N/A   Clear
10:55 AM 44.6 °F 41.4 °F 30.2 °F 57% 29.85 in 10.0 mi South 5.8 mph - N/A   Clear
11:15 AM 46.4 °F 41.9 °F 32.0 °F 57% 29.85 in 10.0 mi South 9.2 mph - N/A   Clear
11:35 AM 46.4 °F 42.4 °F 32.0 °F 57% 29.85 in 10.0 mi South 8.1 mph - N/A   Clear
11:55 AM 48.2 °F - 33.8 °F 58% 29.85 in 10.0 mi WSW 3.5 mph - N/A   Clear
12:15 PM 48.2 °F - 33.8 °F 58% 29.85 in 10.0 mi SW 8.1 mph - N/A   Clear
12:35 PM 50.0 °F - 33.8 °F 54% 29.84 in 10.0 mi South 6.9 mph - N/A   Scattered Clouds
12:55 PM 51.8 °F - 33.8 °F 50% 29.84 in 10.0 mi SSW 11.5 mph - N/A   Partly Cloudy
1:15 PM 53.6 °F - 30.2 °F 41% 29.84 in 10.0 mi WSW 8.1 mph 17.3 mph N/A   Clear
1:35 PM 53.6 °F - 30.2 °F 41% 29.84 in 10.0 mi West 8.1 mph 19.6 mph N/A   Clear
1:55 PM 53.6 °F - 28.4 °F 38% 29.84 in 10.0 mi West 19.6 mph - N/A   Scattered Clouds
2:15 PM 53.6 °F - 24.8 °F 33% 29.84 in 10.0 mi West 9.2 mph 21.9 mph N/A   Scattered Clouds
2:35 PM 53.6 °F - 26.6 °F 35% 29.84 in 10.0 mi West 15.0 mph 20.7 mph N/A   Scattered Clouds
2:55 PM 55.4 °F - 24.8 °F 31% 29.84 in 10.0 mi West 12.7 mph 18.4 mph N/A   Clear
3:15 PM 55.4 °F - 24.8 °F 31% 29.84 in 10.0 mi West 6.9 mph - N/A   Clear
3:35 PM 53.6 °F - 24.8 °F 33% 29.84 in 10.0 mi West 12.7 mph - N/A   Partly Cloudy
3:55 PM 55.4 °F - 26.6 °F 33% 29.84 in 10.0 mi SW 11.5 mph - N/A   Scattered Clouds
4:15 PM 55.4 °F - 26.6 °F 33% 29.84 in 10.0 mi West 13.8 mph - N/A   Mostly Cloudy
4:35 PM 55.4 °F - 24.8 °F 31% 29.84 in 10.0 mi West 10.4 mph 17.3 mph N/A   Scattered Clouds
4:55 PM 55.4 °F - 23.0 °F 29% 29.84 in 10.0 mi West 12.7 mph 17.3 mph N/A   Clear
5:15 PM 55.4 °F - 21.2 °F 26% 29.84 in 10.0 mi SW 12.7 mph 18.4 mph N/A   Clear
5:35 PM 53.6 °F - 23.0 °F 30% 29.85 in 10.0 mi West 8.1 mph - N/A   Clear
5:55 PM 53.6 °F - 21.2 °F 28% 29.85 in 10.0 mi WSW 11.5 mph 19.6 mph N/A   Clear
6:15 PM 53.6 °F - 21.2 °F 28% 29.85 in 10.0 mi West 16.1 mph 19.6 mph N/A   Clear
6:35 PM 51.8 °F - 21.2 °F 30% 29.86 in 10.0 mi West 10.4 mph - N/A   Clear
6:55 PM 48.2 °F - 21.2 °F 34% 29.87 in 10.0 mi West 6.9 mph - N/A   Clear
7:15 PM 46.4 °F 43.5 °F 23.0 °F 40% 29.87 in 10.0 mi WSW 5.8 mph - N/A   Clear
7:35 PM 44.6 °F 42.2 °F 24.8 °F 46% 29.87 in 10.0 mi SW 4.6 mph - N/A   Mostly Cloudy
7:55 PM 42.8 °F 40.1 °F -4.0 °F 14% 29.88 in 10.0 mi SSW 4.6 mph - N/A   Mostly Cloudy
8:15 PM 42.8 °F 39.3 °F -7.6 °F 12% 29.89 in 10.0 mi SSW 5.8 mph - N/A   Partly Cloudy
8:35 PM 41.0 °F 39.0 °F -5.8 °F 14% 29.89 in 10.0 mi SW 3.5 mph - N/A   Clear
9:15 PM 42.8 °F - 41.0 °F 93% 29.90 in 10.0 mi Calm Calm - N/A   Clear
9:35 PM 42.8 °F 40.1 °F 24.8 °F 49% 29.90 in 10.0 mi SSE 4.6 mph - N/A   Clear
9:55 PM 44.6 °F 42.2 °F 23.0 °F 43% 29.91 in 10.0 mi SSE 4.6 mph - N/A   Clear
10:15 PM 41.0 °F 38.0 °F 24.8 °F 53% 29.92 in 10.0 mi SSE 4.6 mph - N/A   Clear
10:35 PM 39.2 °F - 24.8 °F 56% 29.92 in 10.0 mi Calm Calm - N/A   Clear
10:55 PM 41.0 °F 38.0 °F 28.4 °F 61% 29.93 in 10.0 mi SE 4.6 mph - N/A   Clear
11:15 PM 42.8 °F 41.1 °F 26.6 °F 53% 29.94 in 10.0 mi South 3.5 mph - N/A   Clear
11:35 PM 42.8 °F 41.1 °F 26.6 °F 53% 29.94 in 10.0 mi SSE 3.5 mph - N/A   Clear
11:55 PM 42.8 °F 41.1 °F 24.8 °F 49% 29.94 in 10.0 mi SE 3.5 mph - N/A   Clear